Concordia, KS

12:08 AM CDT on July 22, 2017 (GMT -0500)
Blosser Municipal

Weather History for KCNK - November, 2013

Change the Weather History Date:

Saturday, November 23, 2013

  Actual Average Record
Temperature  
Mean Temperature 22 °F 38 °F  
Max Temperature 29 °F 48 °F 71 °F (1914)
Min Temperature 15 °F 27 °F -5 °F (1898)
Degree Days  
Heating Degree Days 43 27  
Month to date heating degree days 471 494  
Since 1 July heating degree days 815 885  
Cooling Degree Days 0 0  
Month to date cooling degree days 0 0  
Year to date cooling degree days 1359 1348  
Moisture  
Dew Point 12 °F    
Average Humidity 62    
Maximum Humidity 77    
Minimum Humidity 46    
Precipitation  
Precipitation 0.00 in 0.03 in 1.39 in (1905)
Month to date precipitation 1.15 0.88  
Year to date precipitation 26.65 26.81  
Snow  
Snow 0.00 in 0.10 in 1.10 in (2007)
Month to date snowfall T 1.6  
Year to date snowfall 20.3 15.5  
Since 1 July snowfall T 1.8  
Snow Depth 0.00 in    
Sea Level Pressure  
Sea Level Pressure 30.80 in    
Wind  
Wind Speed 9 mph (NE)    
Max Wind Speed 18 mph    
Max Gust Speed 23 mph    
Visibility 10 miles    
Events      
T = Trace of Precipitation, MM = Missing Value Source: NWS Daily Summary

Daily Weather History Graph

Daily Weather History Graph

Search for Another Location

Airport or City:

Trip Planner

Search our weather history database for the weather conditions in past years. The results will help you decide how hot, cold, wet, or windy it might be!

Date:

Astronomy

Nov. 23, 2013 Rise Set
Actual Time 7:23 AM CST 5:09 PM CST
Civil Twilight 6:54 AM CST 5:39 PM CST
Nautical Twilight 6:21 AM CST 6:12 PM CST
Astronomical Twilight 5:49 AM CST 6:44 PM CST
Moon 10:39 PM CST (11/23) 11:42 AM CST (11/23)
Length of Visible Light 10h 44m
Length of Day
9h 46m
Waning Gibbous, 69% of the Moon is Illuminated
Nov 23
Waning Gibbous
Nov 25
Last Quarter
Dec 2
New
Dec 9
First Quarter
Dec 17
Full

Hourly Weather History & Observations

Time (CST) Temp. Windchill Dew Point Humidity Pressure Visibility Wind Dir Wind Speed Gust Speed Precip Events Conditions
12:55 AM 25.0 °F 17.1 °F 14.0 °F 63% 30.68 in 10.0 mi West 6.9 mph - N/A   Clear
1:55 AM 26.1 °F 18.4 °F 12.9 °F 58% 30.69 in 10.0 mi NW 6.9 mph - N/A   Clear
2:55 AM 28.0 °F 19.3 °F 16.0 °F 61% 30.71 in 10.0 mi North 9.2 mph - N/A   Clear
3:55 AM 27.0 °F 15.2 °F 16.0 °F 63% 30.73 in 10.0 mi NNE 15.0 mph 20.7 mph N/A   Clear
4:55 AM 26.1 °F 14.5 °F 16.0 °F 66% 30.74 in 10.0 mi NNE 13.8 mph - N/A   Clear
5:55 AM 24.1 °F 12.0 °F 16.0 °F 71% 30.77 in 10.0 mi NNE 13.8 mph - N/A   Clear
6:55 AM 23.0 °F 10.6 °F 15.1 °F 72% 30.80 in 10.0 mi NNE 13.8 mph - N/A   Clear
7:55 AM 21.9 °F 9.2 °F 15.1 °F 75% 30.84 in 10.0 mi NNE 13.8 mph - N/A   Clear
8:55 AM 21.9 °F 8.7 °F 15.1 °F 75% 30.86 in 10.0 mi NNE 15.0 mph - N/A   Clear
9:55 AM 21.9 °F 8.7 °F 14.0 °F 72% 30.88 in 10.0 mi NNE 15.0 mph - N/A   Clear
10:55 AM 25.0 °F 13.1 °F 15.1 °F 66% 30.87 in 10.0 mi NE 13.8 mph - N/A   Clear
11:55 AM 26.1 °F 16.2 °F 14.0 °F 60% 30.86 in 10.0 mi NNE 10.4 mph - N/A   Clear
12:55 PM 28.0 °F 19.3 °F 12.9 °F 53% 30.83 in 10.0 mi NE 9.2 mph - N/A   Clear
1:55 PM 28.0 °F 18.6 °F 14.0 °F 56% 30.82 in 10.0 mi NNE 10.4 mph - N/A   Clear
2:55 PM 27.0 °F 16.1 °F 8.1 °F 45% 30.81 in 10.0 mi NNE 12.7 mph - N/A   Clear
3:55 PM 25.0 °F 14.8 °F 9.0 °F 51% 30.81 in 10.0 mi NNE 10.4 mph - N/A   Clear
4:55 PM 23.0 °F 18.4 °F 6.1 °F 48% 30.82 in 10.0 mi East 3.5 mph - N/A   Clear
5:55 PM 21.9 °F - 7.0 °F 53% 30.82 in 10.0 mi Calm Calm - N/A   Clear
6:55 PM 21.0 °F - 8.1 °F 57% 30.81 in 10.0 mi Calm Calm - N/A   Clear
7:55 PM 19.0 °F 13.9 °F 9.0 °F 65% 30.81 in 10.0 mi East 3.5 mph - N/A   Clear
8:55 PM 17.1 °F 11.7 °F 9.0 °F 71% 30.81 in 10.0 mi ESE 3.5 mph - N/A   Clear
9:55 PM 16.0 °F 8.8 °F 9.0 °F 74% 30.80 in 10.0 mi ESE 4.6 mph - N/A   Clear
10:55 PM 16.0 °F 7.4 °F 9.0 °F 74% 30.79 in 10.0 mi ESE 5.8 mph - N/A   Clear
11:55 PM 15.1 °F 7.7 °F 9.0 °F 77% 30.79 in 10.0 mi SSE 4.6 mph - N/A   Clear